| time (UTC) | temp C | wind direction | speed KPH | gust KPH | rain 1hr cm | rain 24hr cm | rain mn cm | humidity % | barometer mb |
| 20260505035701 | 3 | 45 | 1.6 | 4.8 | 0.00 | 0.00 | 0.00 | 1008.6 | |
| 20260505035657 | 3 | 45 | 1.6 | 4.8 | 0.00 | 0.00 | 0.00 | 1008.6 | |
| 20260505020722 | 3 | 315 | 0.0 | 0.0 | 0.00 | 0.00 | 0.00 | 10.0 | |
| 20260505020717 | 3 | 315 | 0.0 | 0.0 | 0.00 | 0.00 | 0.00 | 1008.4 | |
| 20260505010444 | 4 | 90 | 1.6 | 4.8 | 0.00 | 0.00 | 0.00 | 1009.4 | |
| 20260505010439 | 4 | 90 | 1.6 | 4.8 | 0.00 | 0.00 | 0.00 | 1009.4 | |
| 20260505004907 | 4 | 45 | 1.6 | 6.4 | 0.00 | 0.00 | 0.00 | 1009.4 | |
| 20260505004902 | 4 | 45 | 1.6 | 6.4 | 0.00 | 0.00 | 0.00 | 1009.4 | |
| 20260504234629 | 4 | 0 | 1.6 | 4.8 | 0.00 | 0.00 | 0.00 | 1009.4 | |
| 20260504233041 | 4 | 135 | 1.6 | 6.4 | 0.00 | 0.00 | 0.00 | 1009.4 | |
| 20260504225927 | 4 | 180 | 1.6 | 6.4 | 0.00 | 0.00 | 0.00 | 1010.4 | |
| 20260504225922 | 4 | 180 | 1.6 | 6.4 | 0.00 | 0.00 | 0.00 | 1010.4 | |
| 20260504224350 | 5 | 90 | 1.6 | 6.4 | 0.00 | 0.00 | 0.00 | 1010.3 | |
| 20260504215648 | 6 | 222 | 1.6 | 11.3 | 0.00 | 0.00 | 0.00 | 1010.0 | |
| 20260504214111 | 6 | 180 | 1.6 | 9.7 | 0.00 | 0.00 | 0.00 | 1010.0 | |
| 20260504212525 | 6 | 135 | 1.6 | 6.4 | 0.00 | 0.00 | 0.00 | 1010.0 | |
| 20260504210948 | 5 | 180 | 1.6 | 6.4 | 0.00 | 0.00 | 0.00 | 1010.0 | |
| 20260504205410 | 6 | 90 | 1.6 | 6.4 | 0.00 | 0.00 | 0.00 | 1009.8 | |
| 20260504205405 | 6 | 90 | 1.6 | 6.4 | 0.00 | 0.00 | 0.00 | 1009.8 | |
| 20260504200708 | 6 | 0 | 1.6 | 4.8 | 0.00 | 0.00 | 0.00 | 1009.6 | |
| 20260504193555 | 6 | 45 | 1.6 | 4.8 | 0.00 | 0.00 | 0.00 | 1010.7 | |
| 20260504193550 | 6 | 45 | 1.6 | 4.8 | 0.00 | 0.00 | 0.00 | 1010.7 | |
| 20260504192008 | 6 | 90 | 1.6 | 4.8 | 0.00 | 0.00 | 0.00 | 1010.7 | |
| 20260504192003 | 6 | 90 | 1.6 | 4.8 | 0.00 | 0.00 | 0.00 | 1010.7 | |
| 20260504190431 | 6 | 90 | 1.6 | 4.8 | 0.00 | 0.00 | 0.00 | 1009.6 | |
| 20260504184853 | 6 | 45 | 1.6 | 3.2 | 0.00 | 0.00 | 0.00 | 1009.6 | |
| 20260504184848 | 6 | 45 | 1.6 | 3.2 | 0.00 | 0.00 | 0.00 | 1009.6 | |
| 20260504180147 | 7 | 0 | 1.6 | 4.8 | 0.00 | 0.00 | 0.00 | 1009.1 | |
| 20260504174615 | 7 | 90 | 1.6 | 9.7 | 0.00 | 0.00 | 0.00 | 1008.8 | |
| 20260504174610 | 7 | 90 | 1.6 | 9.7 | 0.00 | 0.00 | 0.00 | 1008.8 | |
| 20260504173038 | 8 | 90 | 3.2 | 6.4 | 0.00 | 0.00 | 0.00 | 1008.3 | |
| 20260504173033 | 8 | 90 | 3.2 | 6.4 | 0.00 | 0.00 | 0.00 | 1008.3 | |
| 20260504171451 | 8 | 0 | 1.6 | 4.8 | 0.00 | 0.00 | 0.00 | 1007.5 | |
| 20260504150934 | 9 | 270 | 3.2 | 11.3 | 0.00 | 0.00 | 0.00 | 1007.2 | |
| 20260504140655 | 10 | 222 | 3.2 | 12.9 | 0.00 | 0.00 | 0.00 | 1006.6 | |
| 20260504130417 | 10 | 222 | 1.6 | 11.3 | 0.00 | 0.00 | 0.00 | 1008.0 | |
| 20260504120138 | 9 | 315 | 4.8 | 9.7 | 0.00 | 0.00 | 0.00 | 1008.4 |